Theta_e
331 328 327 329 330 330 329 330 331 334 338 341 341 340 340 338 339 340 340 340 339 339 339 340 341 340 341 344 344 344 345 343 340 339 339 339 339 340 340 340 339 340
335 330 327 328 329 330 330 330 331 332 335 338 339 340 342 341 341 340 340 340 340 340 340 340 340 339 339 343 344 343 344 344 343 339 334 333 335 337 339 339 338 339
338 333 329 327 328 329 330 330 331 332 334 337 338 340 341 341 341 341 341 342 342 342 341 340 339 338 338 341 343 343 344 343 343 341 336 330 329 333 337 338 339 341
339 336 331 328 328 328 329 330 330 332 333 335 337 339 340 339 339 338 338 340 343 344 343 340 339 338 338 339 339 342 345 345 344 343 339 333 329 330 334 337 340 342
337 337 333 330 328 328 329 329 330 330 331 332 333 335 337 336 334 333 332 333 338 343 344 342 340 339 339 338 337 338 341 346 346 343 341 337 331 329 330 332 337 342
338 337 335 332 330 329 329 328 329 330 329 330 330 331 332 331 329 329 328 328 331 336 340 342 342 341 339 339 338 337 337 342 346 344 341 339 335 331 330 329 332 336
342 339 336 334 331 329 329 328 329 329 329 329 329 329 329 329 328 327 327 327 328 330 332 334 338 341 341 339 339 338 337 339 342 343 341 340 338 336 333 330 329 330
345 343 339 337 333 330 329 328 328 328 329 329 329 328 328 327 327 326 326 327 328 329 329 329 332 338 342 341 339 338 338 338 339 341 341 341 340 339 336 332 330 329
346 346 343 341 337 332 330 329 328 328 328 329 329 328 328 327 327 326 326 327 328 329 329 329 330 333 338 341 341 339 339 338 338 339 339 339 340 340 339 335 333 331
347 347 346 345 342 336 331 329 329 328 328 328 328 328 327 326 326 325 326 327 327 328 328 329 329 330 333 337 340 341 340 339 338 338 338 338 338 339 339 337 335 333
348 348 348 347 345 342 335 330 329 329 328 328 328 328 327 326 326 325 325 326 326 326 327 328 329 330 330 333 336 339 340 340 339 338 337 337 337 338 338 338 337 334
348 349 349 348 348 347 342 335 330 328 328 328 328 328 328 328 327 326 326 326 326 325 326 326 327 329 330 331 333 335 338 341 341 339 338 337 337 337 337 338 338 336
349 349 350 350 350 349 348 344 338 331 327 326 326 327 328 328 328 327 327 326 326 326 325 325 326 327 330 331 332 333 335 339 341 341 339 338 337 337 337 337 337 337
350 350 350 351 351 351 350 349 346 340 333 328 326 326 326 326 326 326 326 326 326 326 325 325 325 326 328 330 331 332 333 336 339 341 341 340 338 337 337 337 337 337
350 351 351 352 352 352 352 351 350 348 343 337 332 328 326 326 325 325 325 325 325 325 325 325 325 325 326 329 331 332 333 334 336 338 340 340 339 338 338 338 337 337
351 352 352 353 353 353 353 353 352 351 349 346 341 337 332 329 327 326 325 325 324 324 325 325 325 325 325 328 330 331 333 334 334 336 337 338 339 339 339 338 337 337
352 352 353 353 354 354 354 354 354 353 352 351 348 345 341 337 333 331 328 327 326 325 325 324 325 325 326 328 330 331 332 334 335 335 336 337 337 338 337 337 337 338
354 354 354 355 355 355 355 355 355 355 354 353 352 350 348 344 341 337 334 332 330 327 326 326 326 326 327 329 331 331 331 333 335 336 336 336 336 337 337 337 337 337
355 355 355 356 356 356 356 356 356 356 356 355 354 353 351 349 347 343 340 337 335 332 330 330 330 330 330 331 332 331 331 333 335 336 337 337 336 336 336 336 336 336
356 356 357 357 357 357 357 357 357 357 357 357 356 356 354 353 351 348 345 342 339 337 335 334 334 333 333 334 333 333 332 333 334 336 337 337 337 335 335 335 335 335
357 358 358 358 358 358 358 358 358 359 359 358 358 358 356 355 354 351 349 346 343 340 338 337 337 336 336 336 336 335 334 334 334 335 337 338 338 336 335 334 334 334
359 359 359 359 359 359 359 359 360 360 360 360 360 359 358 357 355 354 352 349 346 344 341 340 339 338 339 339 338 338 337 337 336 336 337 339 338 338 336 334 334 334
360 360 360 360 360 360 360 361 361 361 362 362 361 360 360 358 356 355 353 351 349 346 343 342 340 340 341 341 340 340 340 339 338 337 338 339 339 339 338 336 334 334
362 362 362 362 361 362 362 362 362 362 362 362 362 362 361 360 358 356 354 351 350 348 344 343 341 340 341 342 342 342 342 341 340 339 339 340 341 341 340 338 336 335
359 361 362 362 363 362 362 363 363 363 363 363 363 363 362 362 360 358 355 352 349 348 347 345 343 341 342 343 343 344 344 342 342 341 341 341 342 343 343 342 340 338
359 360 359 360 360 360 361 362 363 363 364 363 363 364 363 363 362 360 359 355 351 349 348 346 345 343 343 343 344 344 345 344 343 343 342 342 342 344 345 345 343 341
Wind_Speed
34 33 32 31 30 29 28 27 25 24 23 22 21 20 19 18 17 17 16 15 14 13 12 12 12 12 13 13 12 12 11 11 13 15 17 16 15 14 14 12 12 12
35 35 34 33 32 31 30 28 27 25 24 23 22 21 19 17 17 17 17 16 15 14 13 13 13 13 13 13 13 12 12 12 13 14 16 16 16 16 14 12 12 12
36 36 36 35 34 33 31 30 28 27 25 23 22 22 20 18 17 16 16 16 15 15 14 14 14 13 13 14 14 13 12 12 12 13 14 14 15 16 14 13 13 14
37 38 37 36 35 34 33 31 29 28 26 24 23 22 21 19 18 17 15 15 15 15 15 15 14 14 14 14 15 14 13 12 12 13 14 13 15 16 15 15 16 16
37 38 38 38 37 35 34 33 31 29 28 26 24 23 22 20 19 18 16 16 15 15 16 16 15 15 14 15 15 15 15 14 14 14 15 14 14 15 16 17 18 19
38 38 39 39 39 37 35 35 33 30 29 28 26 24 23 21 20 18 18 17 17 17 17 17 17 17 16 16 15 15 15 15 16 15 15 15 15 15 15 17 20 20
39 38 38 39 40 39 38 36 34 33 31 30 28 27 25 24 22 20 19 19 19 19 19 19 19 19 18 17 17 16 16 16 17 17 16 15 15 15 15 16 19 20
39 39 39 39 40 41 41 39 37 35 34 32 31 30 28 26 25 23 22 21 21 21 21 21 21 20 20 19 19 18 17 17 18 18 18 16 16 17 17 16 17 18
38 39 39 40 40 42 42 42 40 38 36 36 34 33 31 30 28 27 25 24 23 22 22 22 22 22 22 21 21 20 19 19 19 19 20 19 18 18 18 18 17 16
39 39 40 41 41 42 43 43 42 40 39 38 37 36 35 33 32 31 29 28 26 25 24 24 24 23 24 23 23 22 21 21 21 21 21 21 20 19 19 19 18 17
41 40 40 41 41 41 42 43 43 42 40 40 39 39 38 37 36 35 33 32 30 28 27 26 25 25 25 25 25 24 23 23 23 22 22 22 22 20 20 20 20 19
42 41 40 40 40 40 41 42 43 43 43 41 41 40 40 39 38 37 36 34 33 31 29 28 27 26 26 26 27 26 26 25 24 24 24 23 23 22 21 21 21 21
44 42 41 39 39 39 39 40 42 43 43 43 42 41 41 40 40 39 38 36 35 33 32 31 29 28 27 27 27 27 28 28 26 26 25 25 25 24 23 23 22 22
44 43 42 40 38 37 37 38 40 42 43 43 42 42 42 41 41 40 39 38 38 36 35 34 32 31 30 29 28 28 28 29 29 28 27 26 26 25 25 25 24 24
45 43 42 41 40 38 38 37 38 40 41 42 43 42 42 41 41 41 41 40 40 38 37 36 35 34 32 30 29 29 28 29 30 30 29 27 26 26 26 26 26 26
45 44 43 42 41 40 39 38 37 38 40 41 43 43 42 42 41 41 42 42 41 40 39 38 37 36 34 32 31 30 29 28 29 30 31 30 29 28 27 27 27 26
45 44 44 43 42 41 39 38 38 38 39 40 41 42 42 42 42 42 43 42 42 41 40 39 38 37 36 34 32 31 31 30 30 30 31 31 31 30 29 28 28 27
45 44 44 43 42 41 39 38 38 38 39 40 40 41 42 42 43 43 43 43 42 42 41 41 39 38 37 35 33 32 32 32 31 31 31 31 32 32 31 30 29 29
43 43 43 43 42 40 39 38 38 39 39 40 40 40 41 42 42 43 43 43 43 43 42 41 40 38 37 35 34 33 32 33 33 33 33 32 32 32 32 31 30 30
41 42 42 41 40 39 39 39 39 39 38 39 39 40 41 42 43 43 43 42 43 43 42 41 40 38 37 35 34 33 33 33 33 33 34 33 33 33 33 32 32 31
40 40 40 40 40 39 39 39 38 37 37 37 38 39 40 42 42 43 43 42 42 42 42 41 39 37 37 36 35 34 33 33 34 34 34 34 34 34 34 33 32 32
39 40 40 39 39 39 40 39 38 37 35 35 36 37 38 39 41 43 44 43 42 42 42 41 39 37 37 36 35 34 34 35 35 35 35 35 35 35 35 34 33 32
39 40 40 39 39 39 40 40 39 37 35 34 35 36 36 37 39 40 42 43 43 42 42 42 40 37 37 37 36 35 36 36 36 36 36 36 36 35 36 35 34 34
35 38 39 39 39 39 40 41 40 38 36 35 35 35 34 34 34 36 39 42 43 43 43 42 40 38 37 37 37 37 37 38 38 38 37 37 36 36 35 36 35 35
26 33 37 38 39 40 40 40 41 39 38 37 36 36 34 33 32 33 35 38 41 43 43 43 41 39 38 38 38 38 38 39 39 40 39 38 37 36 35 35 35 35
17 23 29 34 37 39 40 40 40 40 40 39 39 38 36 35 34 34 34 35 37 41 43 43 43 41 40 39 39 39 39 39 40 41 41 39 38 37 36 35 35 34
Wind_Direction
221 219 218 219 218 218 220 220 218 214 207 207 211 211 210 209 208 209 212 213 212 211 211 211 213 217 218 214 212 211 213 218 220 224 231 233 232 228 224 227 227 220
223 221 220 220 219 219 221 221 221 219 212 211 213 213 212 212 212 213 213 215 215 214 213 213 216 221 224 223 219 215 214 217 220 224 231 234 233 231 227 227 220 205
226 224 222 221 221 221 223 223 222 221 218 216 214 213 214 214 215 218 218 218 219 220 219 218 217 221 225 226 226 222 218 220 223 227 232 233 231 230 225 221 214 205
228 226 224 222 222 223 224 225 224 223 222 220 215 213 215 216 217 221 225 225 223 223 225 225 222 222 225 227 229 229 226 226 228 230 232 233 231 229 224 219 216 212
230 229 227 224 223 223 224 226 227 225 225 224 220 216 217 218 220 224 230 232 229 227 228 230 229 227 227 228 230 232 231 231 231 231 232 232 232 231 227 223 220 218
232 231 229 227 225 224 224 226 227 227 227 228 227 224 223 224 225 228 231 235 236 234 233 234 234 231 231 232 232 232 232 232 231 231 233 232 233 233 231 227 223 221
234 233 232 230 228 226 226 226 227 228 228 230 231 232 230 230 231 233 234 236 239 239 238 239 238 235 232 233 235 234 233 232 230 231 233 235 235 236 236 233 226 223
235 235 234 232 230 228 227 227 228 228 229 230 233 235 235 235 237 239 239 239 240 242 242 242 241 239 235 234 236 237 236 234 232 232 233 235 236 238 239 238 234 227
234 235 235 235 233 231 229 228 229 229 229 230 233 235 238 240 241 243 244 242 241 243 244 244 244 242 239 237 237 238 238 238 237 236 235 235 236 238 239 240 241 236
233 235 236 236 235 233 231 229 229 230 230 231 233 236 239 242 244 246 247 245 244 244 245 246 246 245 243 242 240 239 240 240 240 241 240 239 238 238 237 239 242 242
233 235 236 237 236 235 233 232 231 231 231 232 234 236 238 241 244 246 248 248 248 247 247 248 248 247 246 246 245 243 242 241 242 243 244 244 243 241 239 239 241 243
233 234 236 237 238 237 235 234 233 233 234 234 234 236 238 240 242 245 247 249 250 251 252 252 251 250 248 247 247 246 245 245 244 244 244 246 247 246 245 242 242 243
233 235 236 238 239 239 238 237 236 236 236 236 237 237 238 240 242 244 246 248 251 253 254 255 256 254 251 249 247 246 247 247 246 245 245 246 247 249 249 248 246 245
235 236 238 239 240 241 241 240 238 238 238 239 239 240 240 241 243 245 247 249 251 252 254 255 256 256 255 252 249 247 246 247 248 248 247 247 247 248 249 251 251 250
236 237 239 240 240 241 242 242 241 240 240 240 241 241 242 243 244 246 248 249 251 252 253 254 255 255 257 256 253 249 246 246 247 249 249 249 249 248 249 251 251 252
236 237 239 240 241 241 242 243 243 243 242 242 242 242 244 245 246 247 248 250 251 252 252 253 254 255 257 258 256 252 248 247 247 248 249 250 250 250 250 251 251 252
236 237 239 240 241 242 243 244 245 245 245 244 244 244 244 245 246 248 249 250 251 252 253 253 253 255 257 258 258 255 252 249 248 248 249 250 251 252 252 253 253 253
237 238 239 240 242 243 244 246 246 247 246 246 246 246 245 245 246 247 248 250 251 252 253 254 255 256 257 258 258 256 254 252 251 251 250 250 251 252 253 254 254 254
239 240 240 242 243 245 246 246 247 247 247 247 248 248 247 247 247 247 248 249 250 252 253 254 256 256 257 257 256 255 254 254 253 253 254 253 252 252 253 254 254 255
240 241 242 244 245 246 246 247 247 248 248 249 249 249 249 248 248 247 247 248 249 250 252 254 255 256 256 256 255 254 253 253 253 254 255 256 255 254 253 253 253 254
240 241 243 244 246 246 246 247 248 249 249 250 250 249 249 249 249 248 247 248 249 250 252 253 254 255 256 255 254 253 253 253 253 254 255 256 256 255 254 254 254 254
239 241 243 244 245 246 246 246 247 248 250 250 250 250 250 250 249 248 247 248 249 249 250 252 253 254 255 255 254 253 253 253 253 253 254 255 256 256 255 254 253 254
237 239 241 244 245 246 246 247 248 249 250 250 249 249 249 249 249 249 248 247 248 249 250 251 253 253 253 254 254 254 253 253 252 252 253 254 255 255 255 255 254 253
239 241 242 244 246 247 248 249 249 250 251 251 250 249 250 251 251 251 250 248 248 248 249 251 252 253 253 254 254 254 254 253 252 252 253 254 254 255 255 255 255 254
239 243 245 247 248 250 251 251 250 251 252 252 251 250 251 252 252 252 252 251 249 248 248 250 251 252 253 253 254 254 254 254 253 253 253 253 253 254 255 256 256 255
232 237 241 245 249 251 252 252 252 252 252 252 251 251 251 251 250 251 252 252 252 251 250 249 250 250 251 252 252 253 253 253 253 253 253 252 252 253 254 254 255 255